Regional Weather Roundup
Issued by NWS

Home | Current Version | Previous Version | Text Only | Print | Product List | Glossary On
Versions: 1 2 3 4 5 6 7 8 9 10 11 12 13 14 15 16 17 18 19 20 21 22 23 24 25 26 27 28 29 30 31 32 33 34 35 36 37 38 39 40 41 42 43 44 45 46 47 48 49 50
000
ASHW40 PHFO 301210
RWRHI

WEATHER ROUNDUP FOR HAWAII
NATIONAL WEATHER SERVICE HONOLULU HI
200 AM HST WED JUL 30 2014

THIS IS AN AUTOMATED REPORT THAT HAS NOT BEEN QUALITY CONTROLLED.

NOTE..."FAIR" INDICATES FEW OR NO CLOUDS BELOW 12,000 FEET WITH NO
SIGNIFICANT WEATHER AND/OR OBSTRUCTIONS TO VISIBILITY.

* - THESE SITES REPORT LIMITED FIELDS

HIZ001>004-301300-
KAUAI-NIIHAU-

CITY           SKY/WX    TMP DP  RH WIND       PRES   REMARKS
LIHUE APT      PTCLDY    77  66  68 E12       30.05F
PORT ALLEN*      N/A     75 N/A N/A E9          N/A
POIPU*           N/A     77 N/A N/A NE8G15      N/A
PRINCEVILLE*   NOT AVBL
KOKOLE POINT*  NOT AVBL
MOLOAA DAIRY*  NOT AVBL
WAIMEA HTS*    NOT AVBL
PUU OPAE*      NOT AVBL
PUU LUA*       NOT AVBL
MAKAHA RIDGE*  NOT AVBL
$$

HIZ005>011-301300-
OAHU-

CITY           SKY/WX    TMP DP  RH WIND       PRES   REMARKS
HONOLULU       PTCLDY    77  65  66 NE10      30.01F
KALAELOA       CLEAR     72  64  76 CALM      30.03F
KANEOHE MCB    PTCLDY   N/A N/A N/A E8        30.02F
WHEELER FIELD  FAIR      73  65  74 S1        30.03F
BELLOWS*       NOT AVBL
KAHUKU*        NOT AVBL
WHEELER*       NOT AVBL
WAIANAE HARBOR NOT AVBL
DILLINGHAM*      N/A     70  64  83 SE1         N/A
KAHUKU TRN*      N/A     73  66  78 E10G17      N/A
KAWAILOA*      NOT AVBL
KII*             N/A     77  68  73 CALM        N/A
MAKUA RANGE*     N/A     72  64  78 E5          N/A
OAHU FOREST NW NOT AVBL
SCHOFIELD BRK*   N/A     68  63  83 MISG        N/A
SCHOFIELD S*   NOT AVBL
WAIANAE VLY*   NOT AVBL
KUAOKALA*      NOT AVBL
HONOULIUULI*   NOT AVBL
MOKUOLOE IS*     N/A    N/A N/A N/A MISG        N/A
PALEHUA*       NOT AVBL
WAIAWA PHB*    NOT AVBL
$$

HIZ012>013-301300-
MOLOKAI-

CITY           SKY/WX    TMP DP  RH WIND       PRES   REMARKS
MOLOKAI AIRPT  CLEAR     69  66  90 NE3       30.02F
KALAUPAPA      NOT AVBL
MAKAPULAPAI*   NOT AVBL
MOLOKAI 1*     NOT AVBL
PUU ALII*      NOT AVBL
$$

HIZ016-301300-
KAHOOLAWE-

CITY           SKY/WX    TMP DP  RH WIND       PRES   REMARKS
KAHOOLAWE*     NOT AVBL
HAKIOAWA*      NOT AVBL
HONOKANAIA*      N/A     78  68  70 NE12G25   30.02F
KANELOA*         N/A     73  66  78 E13G25    30.12S
KEALIALALO*    NOT AVBL
LUA MAKIKA*    NOT AVBL
$$

HIZ014>015-301300-
LANAI-

CITY           SKY/WX    TMP DP  RH WIND       PRES   REMARKS
LANAI CITY     FAIR      65  63  93 E3        30.07F
LANAI 1*       NOT AVBL
$$

HIZ017>028-301300-
MAUI-

CITY           SKY/WX    TMP DP  RH WIND       PRES   REMARKS
KAHULUI        CLEAR     71  61  70 E5        30.01F
KAPALUA-W MAUI NOT AVBL
HANA AIRPORT     N/A     72  68  88 CALM      30.05S
HANA*          NOT AVBL
HALEAKALA SUMM   N/A     46  10  23 VRB5G18     N/A
MAALAEA BAY*   NOT AVBL
HALEAKALA*     NOT AVBL
KAUPO GAP*     NOT AVBL
KULA 1*          N/A    N/A N/A N/A E3          N/A
$$

HIZ023>026-301300-
BIG ISLAND OF HAWAII COAST AND LOWER SLOPES-

CITY           SKY/WX    TMP DP  RH WIND       PRES   REMARKS
KAILUA KONA    CLEAR     78  60  53 NE7       29.96F
HILO           MOCLDY    73  67  81 SW3       30.01F
HONOKAA*       NOT AVBL
KAWAIHAE MWT*  NOT AVBL
KAWAIHAE*        N/A     81 N/A N/A NE2         N/A
SOUTH POINT*   NOT AVBL
UPOLU AIRPORT* NOT AVBL
KAMUELA*       SUNNY     61  59  94 NE9       30.11S
HAKALAU*         N/A     46  46 100 W5          N/A
KALOKO-HONOKO* NOT AVBL
PALI 2*          N/A     63  59  88 N12G20      N/A
KEALAKOMO*       N/A     77  66  69 NE10        N/A
KAUPULEHU*     NOT AVBL
KAPAPALA*        N/A     66  63  90 NW3         N/A
LOWER KAHUKU*  NOT AVBL
PUHE CS*       NOT AVBL
PUHO CS*       NOT AVBL
PTA KEAMUKU*     N/A     57  50  77 S5          N/A
WAIKOLOA*      NOT AVBL
$$

HIZ027>028-301300-
BIG ISLAND OF HAWAII INTERIOR AND SUMMMITS-

CITY           SKY/WX    TMP DP  RH WIND       PRES   REMARKS
BRADSHAW FIELD CLOUDY    47  31  54 SE2       30.33F
MK VISITOR CEN NOT AVBL
MAUNA KEA*       N/A     39 -11  11 CALM        N/A
MAUNA LOA*     NOT AVBL
MAUNA LOA 1*   NOT AVBL
PTA KIPUKA*      N/A     45  37  76 SE3         N/A
PTA RANGE 17*    N/A     54  48  82 E3G9        N/A
PTA WEST*        N/A     52  50  93 SE9         N/A
NENE CABIN*    NOT AVBL
AHUMOA*        NOT AVBL
PTA PORTABLE*  NOT AVBL
PUU MALI*      NOT AVBL
$$

HIC003-301300-
NORTHWEST ISLANDS-

CITY           SKY/WX    TMP DP  RH WIND       PRES   REMARKS
MIDWAY ISLAND  LGT RAIN  79  73  83 S6        30.03F
MIDWAY NOS*    NOT AVBL
FRENCH FRIGATE NOT AVBL
$$

PHZ110>124-180-301300-
BUOY REPORTS

STATION/POSITION TIME  TEMP    WIND        PRES    WAVE   SWELL
                       AIR SEA DIR/SP/G            HT/PER HT/DIR
                 (UTC) (F)     (DEG/KT/KT) (MB)    (FT/S) (FT/D)
BUOY 51001       NOT AVBL
BUOY 51101       NOT AVBL
BUOY 51100       1200   77 78   70/ 14/ 16 1017.2
BUOY 51003       1100   80 81   80/ 10/ 12 1016.2F   6/ 8   7
BUOY 51004       1051   78 80   50/ 16/ 17 1014.3F   7/ 9   7/ 90
BARBERS PT BUOY  NOT AVBL
WAIMEA BAY BUOY  1200      80                N/A     2/13   2/300
KAILUA BAY BUOY  1200      80                N/A     5/ 9   2/140
LANAI BUOY       1200      80                N/A     3/14   2/200
BARBERS PT 2     1200      81                N/A     4/14   2/200
PAUWELA MAUI     1200      79                N/A     4/ 9
HILO             NOT AVBL
KANEOHE BAY BUOY 1200      79                N/A     4/ 6
HANALEI KAUAI    NOT AVBL
KAHULUI HARBOR   1200   77 81   40/ 10/ 15 1016.1F
HONOLULU HARBOR  1200   78      90/  4/  6 1016.7F
KILO NALU        NOT AVBL
HILO HARBOR      1200   72      CALM  /  3 1015.9F
MOKUOLOE         1200      82              1017.0F
NAWILIWILI       1200      82                N/A
WHOTS BUOY       NOT AVBL
BUOY 51028       NOT AVBL
$$

......................KEY........................................
  SKY/WX - SKY CONDITIONS/PRESENT WEATHER
  TMP    - TEMPERATURE IN FAHRENHEIT
  DWPT   - DEWPOINT IN FAHRENHEIT
  RH     - RELATIVE HUMIDITY IN PERCENT
  WIND   - DIRECTION AND SPEED /MPH FOR ISLANDS...KTS FOR BUOYS/
  PRES   - MEAN SEA LEVEL PRESSURE IN INCHES OF HG
  VSB    - VISIBILITY IN MILES
  HX     - HEAT INDEX
  WCI    - WIND CHILL INDEX
  VRB    - VARIABLE WIND DIRECTION
  N/A    - NOT AVAILABLE


USA.gov is the U.S. government's official web portal to all federal, state and local government web resources and services.